7 * 24
多渠道服务支持
ONEWEB-0667是英国OneWeb星座的低轨宽带卫星,于2023年3月9日由SpaceX猎鹰9号火箭,在美国佛罗里达州卡纳维拉尔角航天站发射升空,属于该公司OneWeb 17任务中的一颗卫星。该任务总共成功部署40颗卫星,发射后OneWeb在轨卫星数量达到582颗,完成了第一代全球组网的绝大部分建设。该卫星旨在提供全球高速宽带互联网服务,覆盖偏远地区、海上与航空通信等场景,为应急通信提供支撑。目前OneWeb已被欧洲通信卫星集团收购,成为可与美国星链竞争的全球低轨卫星通信网络,ONEWEB-0667是其全球组网过程中的重要一环。
英国
(GB)
| 数据来源 | 国际轨道数据 |
| 星历时间: | 2026-09-12T02:27:37+0800 9小时前 查看轨道信息 |
| 半长轴: | 7559.91km |
| 偏心率: | 0.0002137 |
| 轨道倾角: | 87.914° |
| 近地点辐角 | 86.883° |
| 升交点赤经 | 257.163° |
| 平近点角 | 273.255° |
| 近地点: | 1180.157km |
| 远地点: | 1183.389km |
| 周期: | 109.027分钟 |
| 每日圈数: | 13.207721 |